Weather History for Big Rapids, MI

Change the Weather History Date:

Tuesday, May 28, 2013

  Actual Average Record
Temperature  
Mean Temperature 61 °F -  
Max Temperature 71 °F 73 °F 90 °F (1978)
Min Temperature 51 °F 46 °F 26 °F (2008)
Degree Days  
Heating Degree Days 4    
Growing Degree Days 11 (Base 50)    
Moisture  
Dew Point 56 °F    
Average Humidity 91    
Maximum Humidity 97    
Minimum Humidity 71    
Precipitation  
Precipitation 1.04 in - - ()
Sea Level Pressure  
Sea Level Pressure 29.85 in    
Wind  
Wind Speed 7 mph (SE)    
Max Wind Speed 9 mph    
Max Gust Speed 17 mph    
Visibility 6 miles    
Events Fog , Rain    
Averages and records for this station are not official NWS values.
T = Trace of Precipitation, MM = Missing Value Source: NWS Daily Summary

Daily Weather History Graph

Daily Weather History Graph

Search for Another Location

Airport:

Trip Planner

Search our weather history database for the weather conditions in past years. The results will help you decide how hot, cold, wet, or windy it might be!

Date:

Astronomy

May. 28, 2013 Rise Set
Actual Time 6:05 AM EDT 9:13 PM EDT
Civil Twilight 5:30 AM EDT 9:48 PM EDT
Nautical Twilight 4:45 AM EDT 10:33 PM EDT
Astronomical Twilight 3:52 AM EDT 11:27 PM EDT
Moon No Moon Rise 9:55 AM EDT (5/28)
Length of Visible Light 16h 18m
Length of Day
15h 08m
Waning Gibbous, 83% of the Moon is Illuminated
May 28
Waning Gibbous
May 31
Last Quarter
Jun 8
New
Jun 16
First Quarter
Jun 23
Full

Hourly Weather History & Observations

Time (EDT) Temp. Dew Point Humidity Pressure Visibility Wind Dir Wind Speed Gust Speed Precip Events Conditions
12:15 AM 53.6 °F 44.2 °F 71% 29.98 in 10.0 mi ESE 9.2 mph 16.1 mph N/A   Overcast
12:34 AM 53.2 °F 44.6 °F 72% 29.97 in 10.0 mi ESE 9.2 mph - N/A   Overcast
12:55 AM 53.1 °F 45.1 °F 74% 29.97 in 10.0 mi ESE 9.2 mph - N/A   Overcast
1:15 AM 52.9 °F 45.5 °F 76% 29.96 in 10.0 mi ESE 6.9 mph - N/A   Overcast
1:35 AM 52.9 °F 45.9 °F 77% 29.97 in 10.0 mi East 8.1 mph - N/A   Overcast
1:55 AM 52.9 °F 46.0 °F 78% 29.97 in 10.0 mi ESE 5.8 mph - N/A   Overcast
2:15 AM 52.7 °F 46.6 °F 80% 29.94 in 10.0 mi East 9.2 mph - N/A   Overcast
2:35 AM 52.0 °F 49.3 °F 90% 29.94 in 4.0 mi ESE 6.9 mph - N/A   Overcast
2:55 AM 51.8 °F 49.5 °F 92% 29.93 in 4.0 mi ESE 8.1 mph - N/A   Overcast
3:15 AM 51.4 °F 49.5 °F 93% 29.93 in 5.0 mi ESE 6.9 mph - N/A   Overcast
3:35 AM 51.6 °F 49.5 °F 92% 29.93 in 7.0 mi ESE 8.1 mph - N/A   Overcast
3:55 AM 51.4 °F 49.6 °F 94% 29.92 in 3.0 mi ESE 8.1 mph - N/A   Overcast
4:15 AM 51.4 °F 50.0 °F 95% 29.92 in 3.0 mi ESE 8.1 mph - N/A   Overcast
4:35 AM 51.3 °F 49.6 °F 94% 29.91 in 5.0 mi ESE 6.9 mph - N/A   Overcast
4:55 AM 51.3 °F 49.5 °F 94% 29.92 in 7.0 mi ESE 6.9 mph - N/A   Overcast
5:15 AM 51.3 °F 49.5 °F 94% 29.92 in 7.0 mi ESE 8.1 mph - N/A   Overcast
5:35 AM 51.3 °F 49.6 °F 94% 29.91 in 4.0 mi ESE 8.1 mph - N/A   Overcast
5:55 AM 51.3 °F 49.8 °F 95% 29.91 in 4.0 mi ESE 8.1 mph - N/A   Overcast
6:15 AM 51.3 °F 50.0 °F 95% 29.91 in 4.0 mi ESE 5.8 mph - N/A   Overcast
6:35 AM 51.4 °F 50.0 °F 95% 29.91 in 4.0 mi ESE 5.8 mph - N/A   Overcast
6:55 AM 51.4 °F 50.0 °F 95% 29.90 in 3.0 mi ESE 6.9 mph - N/A   Overcast
7:15 AM 51.8 °F 50.2 °F 94% 29.90 in 3.0 mi ESE 5.8 mph - N/A   Overcast
7:35 AM 51.8 °F 50.4 °F 95% 29.90 in 3.0 mi SE 8.1 mph - N/A   Overcast
7:55 AM 52.0 °F 50.5 °F 95% 29.91 in 2.5 mi ESE 6.9 mph - N/A Rain Light Rain
8:15 AM 52.2 °F 50.9 °F 95% 29.90 in 2.0 mi ESE 6.9 mph - N/A Rain Light Rain
8:35 AM 52.2 °F 51.1 °F 96% 29.88 in 2.0 mi ESE 8.1 mph - 0.02 in Rain Light Rain
8:55 AM 52.7 °F 51.6 °F 96% 29.87 in 5.0 mi SE 9.2 mph - 0.02 in   Light Drizzle
9:15 AM 53.6 °F 52.0 °F 94% 29.87 in 7.0 mi SE 8.1 mph - N/A   Overcast
9:35 AM 54.0 °F 52.3 °F 94% 29.86 in 7.0 mi ESE 6.9 mph - N/A   Overcast
9:55 AM 54.1 °F 52.7 °F 95% 29.87 in 10.0 mi East 3.5 mph - N/A   Overcast
10:15 AM 54.1 °F 52.7 °F 95% 29.87 in 5.0 mi ESE 6.9 mph - 0.04 in Rain Heavy Rain
10:35 AM 54.1 °F 52.7 °F 95% 29.87 in 5.0 mi SE 8.1 mph - 0.08 in Rain Rain
10:55 AM 54.1 °F 52.7 °F 95% 29.86 in 4.0 mi East 4.6 mph - 0.15 in Rain Rain
11:15 AM 54.5 °F 53.1 °F 95% 29.83 in 5.0 mi ESE 6.9 mph - 0.04 in Rain Light Rain
11:35 AM 54.5 °F 53.1 °F 95% 29.82 in 10.0 mi East 5.8 mph - 0.04 in   Overcast
11:55 AM 54.5 °F 53.1 °F 95% 29.85 in 0.8 mi ESE 4.6 mph - 0.23 in Rain Heavy Rain
12:15 PM 54.7 °F 53.4 °F 96% 29.84 in 2.5 mi East 5.8 mph - 0.11 in Rain Heavy Rain
12:35 PM 54.7 °F 53.6 °F 96% 29.83 in 7.0 mi ESE 6.9 mph - 0.14 in Rain Light Rain
12:55 PM 55.4 °F 54.0 °F 95% 29.82 in 10.0 mi ESE 6.9 mph - 0.14 in   Overcast
1:15 PM 56.1 °F 54.5 °F 94% 29.82 in 10.0 mi ESE 8.1 mph - N/A   Overcast
1:35 PM 56.5 °F 55.0 °F 95% 29.82 in 10.0 mi SSE 5.8 mph - N/A   Overcast
1:55 PM 57.0 °F 55.4 °F 94% 29.82 in 10.0 mi ESE 8.1 mph - N/A   Overcast
2:15 PM 57.6 °F 56.3 °F 96% 29.82 in 10.0 mi ESE 3.5 mph - N/A   Overcast
2:35 PM 58.6 °F 57.2 °F 95% 29.81 in 10.0 mi SE 5.8 mph - N/A   Overcast
2:55 PM 59.9 °F 58.3 °F 94% 29.81 in 10.0 mi SE 3.5 mph - N/A   Overcast
3:15 PM 61.3 °F 59.4 °F 93% 29.81 in 7.0 mi Calm Calm - N/A   Overcast
3:35 PM 63.5 °F 61.3 °F 93% 29.80 in 10.0 mi SE 5.8 mph - N/A   Overcast
3:55 PM 66.4 °F 63.5 °F 90% 29.80 in 10.0 mi SSE 4.6 mph - N/A   Overcast
4:15 PM 69.1 °F 65.1 °F 87% 29.80 in 10.0 mi South 4.6 mph - N/A   Overcast
4:35 PM 69.6 °F 64.6 °F 84% 29.78 in 10.0 mi SSW 6.9 mph - N/A   Overcast
4:55 PM 69.8 °F 64.4 °F 83% 29.78 in 10.0 mi SW 8.1 mph - N/A   Overcast
5:15 PM 71.1 °F 64.0 °F 78% 29.78 in 10.0 mi SSW 4.6 mph - N/A   Overcast
5:35 PM 70.7 °F 61.3 °F 72% 29.78 in 10.0 mi SW 8.1 mph - N/A   Overcast
5:55 PM 70.5 °F 61.5 °F 73% 29.78 in 10.0 mi South 5.8 mph - N/A   Overcast
6:14 PM 69.3 °F 61.7 °F 77% 29.78 in 10.0 mi SW 8.1 mph - N/A   Overcast
6:35 PM 67.8 °F 62.4 °F 83% 29.78 in 7.0 mi SW 6.9 mph 17.3 mph N/A Rain Light Rain
6:55 PM 67.1 °F 64.0 °F 90% 29.78 in 5.0 mi WSW 4.6 mph - 0.01 in Rain Light Rain
7:14 PM 66.4 °F 63.9 °F 92% 29.78 in 5.0 mi WSW 3.5 mph - 0.01 in Rain Light Rain
7:35 PM 66.4 °F 64.2 °F 93% 29.78 in 5.0 mi Calm Calm - 0.01 in   Light Drizzle
7:55 PM 66.2 °F 64.4 °F 94% 29.78 in 4.0 mi Calm Calm - 0.02 in Rain Rain
8:15 PM 65.7 °F 64.2 °F 95% 29.77 in 1.8 mi West 5.8 mph - N/A Rain Light Rain
8:35 PM 65.5 °F 64.0 °F 95% 29.77 in 1.5 mi Calm Calm - 0.01 in   Drizzle
8:55 PM 65.5 °F 64.2 °F 96% 29.77 in 0.5 mi Calm Calm - 0.01 in   Drizzle
9:15 PM 65.3 °F 64.0 °F 96% 29.76 in 1.2 mi NNW 3.5 mph - 0.01 in Rain Rain
9:35 PM 65.3 °F 63.9 °F 95% 29.76 in 2.0 mi Calm Calm - 0.03 in Rain Light Rain
9:55 PM 64.8 °F 63.5 °F 96% 29.77 in 2.0 mi Calm Calm - 0.04 in Rain Light Rain
10:15 PM 64.9 °F 63.9 °F 96% 29.77 in 0.5 mi SSE 3.5 mph - N/A Fog Fog
10:35 PM 65.3 °F 64.2 °F 96% 29.76 in 0.8 mi Calm Calm - 0.03 in Rain Light Rain
10:55 PM 65.3 °F 64.4 °F 97% 29.76 in 0.8 mi SSE 5.8 mph - 0.30 in Rain Heavy Rain
11:15 PM 65.5 °F 64.4 °F 96% 29.77 in 2.0 mi Calm Calm - 0.05 in Rain Light Rain
11:35 PM 66.6 °F 65.5 °F 96% 29.76 in 5.0 mi SSW 6.9 mph - 0.09 in Rain Light Rain
11:55 PM 66.9 °F 65.8 °F 96% 29.76 in 4.0 mi SW 9.2 mph - 0.12 in Rain Light Rain